Regional Weather Roundup
Issued by NWS Upton, NY

Current Version | Previous Version | Text Only | Print | Product List | Glossary On
Versions: 1 2 3 4 5 6 7 8 9 10 11 12 13 14 15 16 17 18 19 20 21 22 23 24 25 26 27 28 29 30 31 32 33 34 35 36 37 38 39 40 41 42 43 44 45 46 47 48 49 50
000 ASUS41 KOKX 291405 RWROKX REGIONAL WEATHER ROUNDUP NATIONAL WEATHER SERVICE NEW YORK NY 900 AM EST THU JAN 29 2015 NOTE: "FAIR" INDICATES FEW OR NO CLOUDS BELOW 12,000 FEET WITH NO SIGNIFICANT WEATHER AND/OR OBSTRUCTIONS TO VISIBILITY. NYZ071-072-176-178-NJZ106-104-291500- NEW YORK CITY METRO AREA CITY SKY/WX TMP DP RH WIND PRES REMARKS CENTRAL PARK FAIR 22 4 46 CALM 30.34F LAGUARDIA APRT PTSUNNY 24 3 40 NE5 30.33F WCI 18 KENNEDY INTL FAIR 23 3 42 NW6 30.35R WCI 16 NEWARK/LIBERTY FAIR 18 3 52 N8 30.34F WCI 8 BRNX BOT. GARD N/A N/A N/A N/A NW1 30.35R TETERBORO NOT AVBL $$ NYZ177-179-078>081-291500- LONG ISLAND NEW YORK CITY SKY/WX TMP DP RH WIND PRES REMARKS FARMINGDALE FAIR 23 7 50 NE8 30.33S WCI 14 ISLIP PTSUNNY 22 8 55 N7 30.31R WCI 13 SHIRLEY FAIR 23 10 57 N5 30.33S WCI 17 WESTHAMPTON FAIR 19 13 77 CALM 30.34R MONTAUK POINT N/A 27 14 58 N6 30.33R WCI 20 $$ NYZ052-065-067-291500- HUDSON VALLEY CITY SKY/WX TMP DP RH WIND PRES REMARKS WHITE PLAINS FAIR 18 0 45 NW7 30.30S WCI 9 NEWBURGH SUNNY 7 1 78 W6 30.33 WCI -3 MONTGOMERY FAIR 3 -4 72 CALM 30.31F POUGHKEEPSIE FAIR 4 -1 80 CALM 30.35F ALBANY NOT AVBL $$ NJZ001-105-106-008-010-013-015-019>022-104-291500- NEW JERSEY CITY SKY/WX TMP DP RH WIND PRES REMARKS NEWARK/LIBERTY FAIR 18 3 52 N8 30.34F WCI 8 TETERBORO NOT AVBL CALDWELL FAIR 15 1 53 CALM 30.33F MORRISTOWN MOSUNNY 16 7 67 CALM 30.33F SOMERVILLE FAIR 14 5 67 CALM 30.32F SUSSEX MIX PCPN -1 -2 95 S3 30.30F ANDOVER N/A 5 3 91 CALM 30.30F TRENTON FAIR 20 3 48 CALM 30.32F MILLVILLE FAIR 25 10 53 NE6 30.32F WCI 18 ATLANTIC CITY FAIR 23 5 46 N8 30.33F WCI 14 WRIGHTSTOWN FAIR 20 5 52 CALM 30.31F TOMS RIVER FAIR 18 7 62 N6 30.34F WCI 9 BELMAR FAIR 18 1 49 NW5 30.32F WCI 11 $$ PAZ047>061-062-071-291500- EASTERN PENNSYLVANIA CITY SKY/WX TMP DP RH WIND PRES REMARKS PHILADELPHIA PTSUNNY 28 8 43 E9 30.33F WCI 19 ALLENTOWN NOT AVBL SCRANTON FAIR 11 2 67 NE3 30.22F $$ CTZ002-004>006-009-010-012-RIZ004-006-007-MAZ004-011-015-291500- SOUTHERN NEW ENGLAND IN CT CITY SKY/WX TMP DP RH WIND PRES REMARKS BRADLEY INTL NOT AVBL HARTFORD FAIR 8 7 95 VRB5 30.36S WCI 0 DANBURY FAIR 6 0 76 CALM 30.32S WTRBRY/OXFORD PTSUNNY 12 -4 48 CALM 30.28R BRIDGEPORT FAIR 20 4 50 CALM 30.34R MERIDEN FAIR 12 3 67 CALM 30.34S NEW HAVEN FAIR 17 1 49 N8 30.33S WCI 7 CHESTER FAIR 19 0 42 NW7 30.30F WCI 10 GROTON FAIR 16 -1 47 N9 30.32S WCI 4 WILLIMANTIC FAIR 2 -2 83 CALM 30.34R IN RI CITY SKY/WX TMP DP RH WIND PRES REMARKS PROVIDENCE FAIR 13 2 61 W5 30.33R WCI 5 BLOCK ISLAND N/A 27 12 54 N3 30.30R WESTERLY FAIR 15 -1 49 N5 30.32S WCI 8 IN MA CITY SKY/WX TMP DP RH WIND PRES REMARKS BOSTON FAIR 18 4 54 W5 30.32F WCI 11 WORCESTER FAIR 25 -7 24 CALM 30.25R WESTFIELD FAIR 5 -1 76 CALM 30.32F PROVINCETOWN FAIR 32 16 51 N8 30.30R WCI 25 NANTUCKET FAIR 30 22 72 N10 30.29R WCI 21 $$ ANZ330-335-338-340-345-350-353-355-291500- COASTAL MARINE OBSERVATIONS STATION/POSITION TIME SKY/WX TEMP WIND PRES VSBY WAVE AIR SEA DIR/SP/G HT/PER (UTC) (F) (DEG/KT/KT) (MB) (MI) (FT/S) NY HARB ENTRANCE 1400 26 39 30/ 6/ 8 1027.2 2/11 4S FIRE IS NOT AVBL 20S FIRE ISLAND 1300 42 1027.1 3/11 23SW MTP 1400 N/A 3/11 HUDSON CANYON NOT AVBL EXECUTION ROCKS 1400 21 33 330/ 6/ 8 N/A WESTERN LI SOUND 1400 22 10/ 4/ 6 N/A 0 CENTRAL LI SOUND 1300 23 35 20/ 8/ 10 N/A 1/ 2 EASTERN LI SOUND NOT AVBL ROBBINS REEF 1400 20 350/ 7/ 9 1026.1 $$ >>>>>>>>>>>>>>>>>>>>>>>>>>>> KEY <<<<<<<<<<<<<<<<<<<<<<<<<<< > < > SKY/WX - SKY CONDITION/PRESENT WEATHER < > TMP - TEMPERATURE IN FAHRENHEIT < > DP - DEWPOINT IN FAHRENHEIT < > RH - RELATIVE HUMIDITY IN PERCENT < > WIND - DIRECTION AND SPEED IN MPH < > PRES - MEAN SEA LEVEL PRESSURE IN INCHES OF HG < > WCI - WIND CHILL INDEX < > VSB - VISIBILITY IN MILES < > HX - HEAT INDEX < > TC - TEMPERATURE IN CELSIUS < > VRB - VARIABLE WIND DIRECTION < > < >>>>>>>>>>>>>>>>>>>>>>>>>>>> KEY <<<<<<<<<<<<<<<<<<<<<<<<<<<

USA.gov is the U.S. government's official web portal to all federal, state and local government web resources and services.